Content
SEND FEEDBACK

Daily
Averages
Monthly
Summary
United States of America

PATCHOGUE, NEW YORK


Home > North America > United States > New York
Elevation: 2 feet     Latitude: 40 45N     Longitude: 073 00W

WEATHER
 
SELECT A DAY
Number of Records: 156,908;   Date Range: 9/29/99 - 8/12/14
 
SHARE

PRINT THIS DATA

[ ← Previous Day ]
WEATHER ALMANAC - FEBRUARY 13, 2013
[ Next Day → ]
[ °C ]   °F
Weather ElementAverageHighLow
Temperature34.2 °F43 °F (1:56 pm)25 °F (6:56 am)
Dewpoint23.7 °F30 °F (8:56 am)18 °F (5:56 am)
Humidity67.1 %100 % (7:56 am)43 % (1:56 pm)
Barometer29.81 in29.95 in (2:56 am)29.69 in (9:56 pm)
Wind Speed3.2 mph10.4 mph (11:42 pm)
Weather ElementAverage
Visibility9 mi
Wind DirectionSE (133.1 °)

Weather ElementTotal
Precipitation---
Heating Degree Days31 (Base 65)
Averaged from 26 records on February 13, 2013
WEATHER CONDITIONS BREAKOUT
WIND DIRECTION BREAKOUT
WEATHER BY HOUR - FEBRUARY 13, 2013
[ °C ]   °F
Local TimeTemperatureDewpointHumidityBarometerVisibilityWind DirectionWind SpeedGust SpeedPrecipitationEventsConditions
1:56 AM28.9 °F21.0 °F72 %29.94 in10.0 miWest (260°)4.6 mphClear
2:56 AM27.0 °F19.9 °F75 %29.95 in10.0 miWest (270°)3.5 mphClear
3:56 AM26.1 °F19.0 °F75 %29.94 in10.0 miWest (270°)3.5 mphClear
4:56 AM27.0 °F21.9 °F81 %29.91 in10.0 miNW (320°)4.6 mphClear
5:56 AM26.1 °F18.0 °F71 %29.92 in10.0 miCalmClear
6:56 AM25.0 °F19.0 °F78 %29.92 in10.0 miCalmClear
7:56 AM28.0 °F28.0 °F100 %29.92 in10.0 miCalmClear
8:56 AM35.1 °F30.0 °F82 %29.91 in10.0 miCalmClear
9:56 AM39.0 °F21.0 °F49 %29.89 in10.0 miNNW (340°)5.8 mphClear
10:56 AM39.0 °F21.0 °F49 %29.89 in10.0 miSSW (200°)3.5 mphClear
11:56 AM37.9 °F21.9 °F53 %29.88 in10.0 miSouth (180°)6.9 mphClear
12:56 PM39.9 °F21.9 °F49 %29.84 in10.0 miWest (270°)3.5 mphClear
1:56 PM43.0 °F21.9 °F43 %29.80 in10.0 miCalmClear
2:56 PM39.9 °F24.1 °F53 %29.79 in10.0 miSouth (170°)8.1 mphClear
3:56 PM39.0 °F24.1 °F55 %29.79 in10.0 miSouth (170°)4.6 mphClear
4:56 PM39.0 °F24.1 °F55 %29.76 in10.0 miCalmClear
5:56 PM35.1 °F23.0 °F61 %29.73 in10.0 miCalmClear
6:56 PM36.0 °F25.0 °F64 %29.72 in10.0 miCalmClear
7:56 PM35.1 °F25.0 °F67 %29.72 in10.0 miCalmOvercast
8:56 PM35.1 °F25.0 °F67 %29.71 in10.0 miCalmOvercast
9:56 PM35.1 °F26.1 °F70 %29.69 in10.0 miCalmOvercast
10:56 PM35.1 °F26.1 °F70 %29.72 in10.0 miWNW (300°)4.6 mphOvercast
11:32 PM35.6 °F26.6 °F70 %29.71 in8.0 miNorth (350°)5.8 mph0.00 inSnowLight Snow
11:42 PM33.8 °F26.6 °F75 %29.71 in1.8 miNorth (350°)10.4 mph0.00 inSnowLight Snow
11:52 PM33.8 °F28.4 °F81 %29.71 in1.8 miVariable5.8 mph0.00 inSnowLight Snow
11:56 PM34.0 °F28.0 °F79 %29.70 in2.0 miNorth (10°)6.9 mph0.00 inSnowLight Snow
Hourly data recorded from KHWV, located miles away from Patchogue, New York







STORIES FROM OUR PARTNERS